Buffalo, NY

10:06 PM EST on November 20, 2019 (GMT -0500)
Buffalo Niagara International

Weather History for KBUF - October, 2019

Change the Weather History Date:

Saturday, October 12, 2019

  Actual Average Record
Temperature  
Mean Temperature 51 °F 52 °F  
Max Temperature 59 °F 60 °F 81 °F (1893)
Min Temperature 42 °F 44 °F 30 °F (1876)
Degree Days  
Heating Degree Days 14 13  
Month to date heating degree days 120 134  
Since 1 July heating degree days 165 296  
Cooling Degree Days 0 0  
Month to date cooling degree days 7 0  
Year to date cooling degree days 604 540  
Growing Degree Days 2 (Base 50)    
Moisture  
Dew Point 43 °F    
Average Humidity 76    
Maximum Humidity 93    
Minimum Humidity 59    
Precipitation  
Precipitation 0.04 in 0.12 in 1.55 in (1946)
Month to date precipitation 1.36 1.48  
Year to date precipitation 36.01 30.54  
Snow  
Snow 0.00 in 0.00 in 8.60 in (2006)
Month to date snowfall 0.0 0.2  
Since 1 July snowfall 0.0 0.2  
Since 1 September snowfall 0.0 0.2  
Snow Depth 0.00 in    
Sea Level Pressure  
Sea Level Pressure 29.96 in    
Wind  
Wind Speed 13 mph (SW)    
Max Wind Speed 25 mph    
Max Gust Speed 33 mph    
Visibility 10 miles    
Events Rain    
T = Trace of Precipitation, MM = Missing Value Source: NWS Daily Summary

Daily Weather History Graph

Daily Weather History Graph

Search for Another Location

Airport or City:

Astronomy

Oct. 12, 2019 Rise Set
Actual Time 7:24 AM EDT 6:37 PM EDT
Civil Twilight 6:56 AM EDT 7:06 PM EDT
Nautical Twilight 6:23 AM EDT 7:38 PM EDT
Astronomical Twilight 5:50 AM EDT 8:11 PM EDT
Moon 6:35 PM EDT (10/12) 5:56 AM EDT (10/12)
Length of Visible Light 12h 09m
Length of Day
11h 13m
Waxing Gibbous, 99% of the Moon is Illuminated
Oct 12
Waxing Gibbous
Oct 13
Full
Oct 21
Last Quarter
Oct 27
New
Nov 4
First Quarter

Hourly Weather History & Observations

Time (EDT) Temp. Windchill Dew Point Humidity Pressure Visibility Wind Dir Wind Speed Gust Speed Precip Events Conditions
12:54 AM 54.0 °F - 43.0 °F 66% 29.95 in 10.0 mi ESE 6.9 mph - N/A   Mostly Cloudy
1:54 AM 54.0 °F - 43.0 °F 66% 29.92 in 10.0 mi ESE 6.9 mph - N/A   Mostly Cloudy
2:54 AM 55.9 °F - 43.0 °F 62% 29.89 in 10.0 mi SE 9.2 mph - N/A   Overcast
3:54 AM 55.9 °F - 44.1 °F 64% 29.88 in 10.0 mi South 3.5 mph - N/A   Overcast
4:54 AM 57.0 °F - 46.0 °F 67% 29.88 in 10.0 mi SSW 6.9 mph - N/A   Overcast
5:54 AM 57.9 °F - 46.9 °F 67% 29.87 in 10.0 mi South 6.9 mph - 0.00 in   Overcast
6:54 AM 57.9 °F - 46.9 °F 67% 29.87 in 10.0 mi SSW 9.2 mph - N/A   Overcast
7:54 AM 57.9 °F - 50.0 °F 75% 29.88 in 10.0 mi SW 17.3 mph 24.2 mph 0.00 in Rain Light Rain
8:05 AM 57.9 °F - 54.0 °F 87% 29.88 in 10.0 mi WSW 17.3 mph 26.5 mph 0.00 in Rain Light Rain
8:54 AM 55.0 °F - 53.1 °F 93% 29.90 in 10.0 mi WSW 13.8 mph 24.2 mph 0.03 in Rain Light Rain
9:54 AM 53.1 °F - 52.0 °F 96% 29.93 in 10.0 mi WSW 16.1 mph 23.0 mph 0.01 in   Overcast
10:30 AM 53.1 °F - 50.0 °F 89% 29.93 in 10.0 mi West 12.7 mph - N/A   Overcast
10:54 AM 53.1 °F - 50.0 °F 89% 29.95 in 10.0 mi West 9.2 mph - N/A   Overcast
11:30 AM 51.1 °F - 46.9 °F 86% 29.96 in 10.0 mi West 16.1 mph 23.0 mph N/A   Overcast
11:54 AM 51.1 °F - 46.0 °F 83% 29.98 in 10.0 mi West 15.0 mph - N/A   Overcast
12:54 PM 51.1 °F - 42.1 °F 71% 29.99 in 10.0 mi West 13.8 mph 23.0 mph N/A   Mostly Cloudy
1:39 PM 53.1 °F - 41.0 °F 64% 29.98 in 10.0 mi West 23.0 mph 27.6 mph N/A   Mostly Cloudy
1:54 PM 52.0 °F - 41.0 °F 66% 29.99 in 10.0 mi West 12.7 mph - N/A   Mostly Cloudy
2:54 PM 54.0 °F - 39.9 °F 59% 29.98 in 10.0 mi WSW 21.9 mph 29.9 mph N/A   Scattered Clouds
3:54 PM 52.0 °F - 41.0 °F 66% 29.99 in 10.0 mi WSW 15.0 mph - N/A   Mostly Cloudy
4:54 PM 53.1 °F - 39.0 °F 59% 30.00 in 10.0 mi WSW 24.2 mph 32.2 mph N/A   Scattered Clouds
5:54 PM 51.1 °F - 37.9 °F 61% 30.01 in 10.0 mi West 20.7 mph 26.5 mph N/A   Mostly Cloudy
6:54 PM 48.9 °F - 37.0 °F 64% 30.02 in 10.0 mi West 16.1 mph - N/A   Scattered Clouds
7:54 PM 48.0 °F - 36.0 °F 63% 30.03 in 10.0 mi WSW 15.0 mph 23.0 mph N/A   Scattered Clouds
8:54 PM 48.9 °F - 36.0 °F 61% 30.03 in 10.0 mi SW 13.8 mph - N/A   Mostly Cloudy
9:54 PM 50.0 °F - 37.0 °F 61% 30.05 in 10.0 mi SSW 11.5 mph - N/A   Mostly Cloudy
10:54 PM 46.9 °F - 37.0 °F 68% 30.04 in 10.0 mi SSW 10.4 mph - N/A   Mostly Cloudy
11:54 PM 44.1 °F 38.6 °F 36.0 °F 73% 30.05 in 10.0 mi South 10.4 mph - N/A   Clear